Regional Weather Roundup
Issued by NWS

Home | Current Version | Previous Version | Graphics & Text | Print | Product List | Glossary On
Versions: 1 2 3 4 5 6 7 8 9 10 11 12 13 14 15 16 17 18 19 20 21 22 23 24 25 26 27 28 29 30 31 32 33 34 35 36 37 38 39 40 41 42 43 44 45 46 47 48 49 50
000
ASUS43 KTOP 040308
RWRKS

WEATHER ROUNDUP FOR KANSAS
NATIONAL WEATHER SERVICE GOODLAND KS
1000 PM CDT TUE MAY 03 2016

NOTE:  "FAIR" INDICATES FEW OR NO CLOUDS BELOW 12,000 FEET WITH NO
SIGNIFICANT WEATHER AND/OR OBSTRUCTIONS TO VISIBILITY.

KSZ001>006-013>018-027>032-041>047-040400-
NORTHWEST KANSAS

CITY           SKY/WX    TMP DP  RH WIND       PRES   REMARKS
GOODLAND       CLEAR     49  37  63 NW5       30.11R
HAYS           CLEAR     54  39  58 W5        30.05S
HILL CITY      CLEAR     52  45  77 CALM      30.05S
RUSSELL        CLEAR     56  46  69 W6        30.02R
$$

KSZ061>065-074>080-084>089-040400-
SOUTHWEST KANSAS

CITY           SKY/WX    TMP DP  RH WIND       PRES   REMARKS
DODGE CITY     CLEAR     50  42  74 N5        30.10R
ELKHART          N/A     57  38  49 N2          N/A
GARDEN CITY    CLEAR     50  41  71 NE6       30.10R
GREAT BEND     CLEAR     52  43  71 W8        30.05R
LIBERAL        CLEAR     52  37  58 NW3       30.12R
PRATT          CLEAR     51  44  75 NW6       30.05R
$$

KSZ066>073-081>083-090>101-040400-
SOUTHEAST KANSAS

CITY           SKY/WX    TMP DP  RH WIND       PRES   REMARKS
CHANUTE        PTCLDY    57  48  72 SW7       29.98S
COFFEYVILLE    CLOUDY    62  49  62 CALM      30.00R
HUTCHINSON     CLEAR     57  45  64 NW6       30.02R
MEDICINE LODGE   N/A     56  46  69 N6        30.04R
NEWTON         CLEAR     55  43  62 NW5       30.03R
PARSONS        PTCLDY    57  50  77 SW3       30.00R
WICHITA INTL   PTCLDY    60  48  64 W7        30.00R
WICHITA JABRA  PTCLDY    60  45  57 W7        30.00R
WICHITA MCCONL CLEAR     62  46  55 W5        30.00S
WINFIELD       CLEAR     55  46  71 SW5       30.40F
$$

KSZ007>012-019>026-033>040-048>060-102>105-040400-
NORTHEAST KANSAS

CITY           SKY/WX    TMP DP  RH WIND       PRES   REMARKS
CONCORDIA      CLEAR     58  42  55 W5        29.98S
EMPORIA        CLEAR     58  47  66 W6        29.97R
LAWRENCE       CLEAR     52  49  89 CALM      29.95S
MANHATTAN      CLEAR     57  46  66 W3        29.97R
MARYSVILLE     CLEAR     59  43  55 W5        29.95S
OLATHE IND     CLEAR     63  46  54 SW3       29.96S
OLATHE EXE     PTCLDY    59  45  59 W3        29.95S
SALINA         CLEAR     59  45  59 W8        30.00R
TOPEKA BILLARD CLEAR     56  49  77 CALM      29.95S
TOPEKA FORBES  CLEAR     57  46  66 CALM      29.95S
$$




USA.gov is the U.S. government's official web portal to all federal, state and local government web resources and services.